Year,Month,Day,Hour,Minute,Value (Times are PST for temperature in C)
2011,03,22,00,00,2.60
2011,03,22,00,01,2.60
2011,03,22,00,02,2.60
2011,03,22,00,03,2.70
2011,03,22,00,04,2.70
2011,03,22,00,05,2.60
2011,03,22,00,06,2.60
2011,03,22,00,07,2.60
2011,03,22,00,08,2.50
2011,03,22,00,09,2.50
2011,03,22,00,10,2.40
2011,03,22,00,11,2.30
2011,03,22,00,12,2.20
2011,03,22,00,13,2.20
2011,03,22,00,14,2.10
2011,03,22,00,15,2.20
2011,03,22,00,16,2.20
2011,03,22,00,17,2.20
2011,03,22,00,18,2.20
2011,03,22,00,19,2.20
2011,03,22,00,20,2.20
2011,03,22,00,21,2.30
2011,03,22,00,22,2.30
2011,03,22,00,23,2.30
2011,03,22,00,24,2.30
2011,03,22,00,25,2.30
2011,03,22,00,26,2.30
2011,03,22,00,27,2.30
2011,03,22,00,28,2.40
2011,03,22,00,29,2.40
2011,03,22,00,30,2.40
2011,03,22,00,31,2.40
2011,03,22,00,32,2.40
2011,03,22,00,33,2.40
2011,03,22,00,34,2.30
2011,03,22,00,35,2.30
2011,03,22,00,36,2.30
2011,03,22,00,37,2.30
2011,03,22,00,38,2.30
2011,03,22,00,39,2.30
2011,03,22,00,40,2.30
2011,03,22,00,41,2.30
2011,03,22,00,42,2.30
2011,03,22,00,43,2.30
2011,03,22,00,44,2.30
2011,03,22,00,45,2.30
2011,03,22,00,46,2.30
2011,03,22,00,47,2.30
2011,03,22,00,48,2.30
2011,03,22,00,49,2.30
2011,03,22,00,50,2.30
2011,03,22,00,51,2.20
2011,03,22,00,52,2.20
2011,03,22,00,53,2.10
2011,03,22,00,54,2.10
2011,03,22,00,55,2.00
2011,03,22,00,56,2.00
2011,03,22,00,57,1.90
2011,03,22,00,58,1.90
2011,03,22,00,59,1.90
2011,03,22,01,00,1.90
2011,03,22,01,01,1.90
2011,03,22,01,02,1.90
2011,03,22,01,03,1.90
2011,03,22,01,04,1.80
2011,03,22,01,05,1.80
2011,03,22,01,06,1.80
2011,03,22,01,07,1.80
2011,03,22,01,08,1.80
2011,03,22,01,09,1.80
2011,03,22,01,10,1.80
2011,03,22,01,11,1.80
2011,03,22,01,12,1.80
2011,03,22,01,13,1.80
2011,03,22,01,14,1.80
2011,03,22,01,15,1.70
2011,03,22,01,16,1.60
2011,03,22,01,17,1.60
2011,03,22,01,18,1.50
2011,03,22,01,19,1.50
2011,03,22,01,20,1.40
2011,03,22,01,21,1.30
2011,03,22,01,22,1.30
2011,03,22,01,23,1.30
2011,03,22,01,24,1.30
2011,03,22,01,25,1.30
2011,03,22,01,26,1.30
2011,03,22,01,27,1.30
2011,03,22,01,28,1.30
2011,03,22,01,29,1.20
2011,03,22,01,30,1.10
2011,03,22,01,31,1.10
2011,03,22,01,32,1.00
2011,03,22,01,33,0.90
2011,03,22,01,34,0.90
2011,03,22,01,35,0.90
2011,03,22,01,36,0.90
2011,03,22,01,37,0.90
2011,03,22,01,38,0.90
2011,03,22,01,39,0.90
2011,03,22,01,40,0.90
2011,03,22,01,41,0.90
2011,03,22,01,42,0.90
2011,03,22,01,43,0.90
2011,03,22,01,44,0.90
2011,03,22,01,45,0.90
2011,03,22,01,46,0.90
2011,03,22,01,47,0.90
2011,03,22,01,48,0.90
2011,03,22,01,49,0.90
2011,03,22,01,50,0.90
2011,03,22,01,51,0.90
2011,03,22,01,52,0.80
2011,03,22,01,53,0.80
2011,03,22,01,54,0.80
2011,03,22,01,55,0.70
2011,03,22,01,56,0.70
2011,03,22,01,57,0.70
2011,03,22,01,58,0.60
2011,03,22,01,59,0.60
2011,03,22,02,00,0.70
2011,03,22,02,01,0.70
2011,03,22,02,02,0.70
2011,03,22,02,03,0.70
2011,03,22,02,04,0.80
2011,03,22,02,05,0.80
2011,03,22,02,06,0.70
2011,03,22,02,07,0.70
2011,03,22,02,08,0.80
2011,03,22,02,09,0.80
2011,03,22,02,10,0.80
2011,03,22,02,11,0.80
2011,03,22,02,12,0.80
2011,03,22,02,13,0.90
2011,03,22,02,14,0.90
2011,03,22,02,15,0.90
2011,03,22,02,16,0.90
2011,03,22,02,17,0.90
2011,03,22,02,18,0.90
2011,03,22,02,19,0.90
2011,03,22,02,20,0.80
2011,03,22,02,21,0.80
2011,03,22,02,22,0.80
2011,03,22,02,23,0.70
2011,03,22,02,24,0.60
2011,03,22,02,25,0.60
2011,03,22,02,26,0.50
2011,03,22,02,27,0.50
2011,03,22,02,28,0.60
2011,03,22,02,29,0.60
2011,03,22,02,30,0.70
2011,03,22,02,31,0.70
2011,03,22,02,32,0.70
2011,03,22,02,33,0.70
2011,03,22,02,34,0.70
2011,03,22,02,35,0.80
2011,03,22,02,36,0.80
2011,03,22,02,37,0.80
2011,03,22,02,38,0.90
2011,03,22,02,39,1.00
2011,03,22,02,40,1.10
2011,03,22,02,41,1.10
2011,03,22,02,42,1.10
2011,03,22,02,43,1.20
2011,03,22,02,44,1.10
2011,03,22,02,45,1.10
2011,03,22,02,46,1.10
2011,03,22,02,47,1.00
2011,03,22,02,48,1.00
2011,03,22,02,49,1.00
2011,03,22,02,50,1.00
2011,03,22,02,51,1.00
2011,03,22,02,52,1.00
2011,03,22,02,53,1.00
2011,03,22,02,54,1.00
2011,03,22,02,55,1.10
2011,03,22,02,56,1.20
2011,03,22,02,57,1.20
2011,03,22,02,58,1.30
2011,03,22,02,59,1.30
2011,03,22,03,00,1.30
2011,03,22,03,01,1.30
2011,03,22,03,02,1.30
2011,03,22,03,03,1.30
2011,03,22,03,04,1.30
2011,03,22,03,05,1.30
2011,03,22,03,06,1.30
2011,03,22,03,07,1.30
2011,03,22,03,08,1.30
2011,03,22,03,09,1.30
2011,03,22,03,10,1.30
2011,03,22,03,11,1.30
2011,03,22,03,12,1.40
2011,03,22,03,13,1.40
2011,03,22,03,14,1.50
2011,03,22,03,15,1.50
2011,03,22,03,16,1.50
2011,03,22,03,17,1.50
2011,03,22,03,18,1.50
2011,03,22,03,19,1.60
2011,03,22,03,20,1.60
2011,03,22,03,21,1.60
2011,03,22,03,22,1.50
2011,03,22,03,23,1.50
2011,03,22,03,24,1.50
2011,03,22,03,25,1.40
2011,03,22,03,26,1.40
2011,03,22,03,27,1.40
2011,03,22,03,28,1.40
2011,03,22,03,29,1.40
2011,03,22,03,30,1.40
2011,03,22,03,31,1.40
2011,03,22,03,32,1.40
2011,03,22,03,33,1.40
2011,03,22,03,34,1.40
2011,03,22,03,35,1.40
2011,03,22,03,36,1.40
2011,03,22,03,37,1.30
2011,03,22,03,38,1.30
2011,03,22,03,39,1.30
2011,03,22,03,40,1.30
2011,03,22,03,41,1.30
2011,03,22,03,42,1.20
2011,03,22,03,43,1.10
2011,03,22,03,44,1.10
2011,03,22,03,45,1.00
2011,03,22,03,46,0.90
2011,03,22,03,47,0.90
2011,03,22,03,48,0.90
2011,03,22,03,49,0.90
2011,03,22,03,50,0.80
2011,03,22,03,51,0.80
2011,03,22,03,52,0.70
2011,03,22,03,53,0.70
2011,03,22,03,54,0.70
2011,03,22,03,55,0.70
2011,03,22,03,56,0.70
2011,03,22,03,57,0.70
2011,03,22,03,58,0.70
2011,03,22,03,59,0.70
2011,03,22,04,00,0.70
2011,03,22,04,01,0.80
2011,03,22,04,02,0.80
2011,03,22,04,03,0.80
2011,03,22,04,04,0.90
2011,03,22,04,05,0.90
2011,03,22,04,06,1.00
2011,03,22,04,07,1.10
2011,03,22,04,08,1.10
2011,03,22,04,09,1.20
2011,03,22,04,10,1.20
2011,03,22,04,11,1.30
2011,03,22,04,12,1.30
2011,03,22,04,13,1.30
2011,03,22,04,14,1.40
2011,03,22,04,15,1.40
2011,03,22,04,16,1.40
2011,03,22,04,17,1.50
2011,03,22,04,18,1.50
2011,03,22,04,19,1.50
2011,03,22,04,20,1.50
2011,03,22,04,21,1.60
2011,03,22,04,22,1.60
2011,03,22,04,23,1.60
2011,03,22,04,24,1.70
2011,03,22,04,25,1.70
2011,03,22,04,26,1.70
2011,03,22,04,27,1.80
2011,03,22,04,28,1.80
2011,03,22,04,29,1.80
2011,03,22,04,30,1.90
2011,03,22,04,31,1.90
2011,03,22,04,32,1.90
2011,03,22,04,33,1.90
2011,03,22,04,34,1.90
2011,03,22,04,35,1.90
2011,03,22,04,36,1.90
2011,03,22,04,37,1.90
2011,03,22,04,38,1.90
2011,03,22,04,39,1.90
2011,03,22,04,40,1.90
2011,03,22,04,41,2.00
2011,03,22,04,42,2.00
2011,03,22,04,43,2.10
2011,03,22,04,44,2.10
2011,03,22,04,45,2.10
2011,03,22,04,46,2.20
2011,03,22,04,47,2.20
2011,03,22,04,48,2.30
2011,03,22,04,49,2.30
2011,03,22,04,50,2.30
2011,03,22,04,51,2.30
2011,03,22,04,52,2.30
2011,03,22,04,53,2.30
2011,03,22,04,54,2.30
2011,03,22,04,55,2.30
2011,03,22,04,56,2.30
2011,03,22,04,57,2.30
2011,03,22,04,58,2.30
2011,03,22,04,59,2.30
2011,03,22,05,00,2.30
2011,03,22,05,01,2.30
2011,03,22,05,02,2.30
2011,03,22,05,03,2.20
2011,03,22,05,04,2.20
2011,03,22,05,05,2.20
2011,03,22,05,06,2.20
2011,03,22,05,07,2.20
2011,03,22,05,08,2.20
2011,03,22,05,09,2.20
2011,03,22,05,10,2.20
2011,03,22,05,11,2.20
2011,03,22,05,12,2.20
2011,03,22,05,13,2.20
2011,03,22,05,14,2.20
2011,03,22,05,15,2.20
2011,03,22,05,16,2.20
2011,03,22,05,17,2.20
2011,03,22,05,18,2.20
2011,03,22,05,19,2.20
2011,03,22,05,20,2.30
2011,03,22,05,21,2.30
2011,03,22,05,22,2.30
2011,03,22,05,23,2.30
2011,03,22,05,24,2.30
2011,03,22,05,25,2.30
2011,03,22,05,26,2.30
2011,03,22,05,27,2.30
2011,03,22,05,28,2.30
2011,03,22,05,29,2.30
2011,03,22,05,30,2.30
2011,03,22,05,31,2.30
2011,03,22,05,32,2.30
2011,03,22,05,33,2.30
2011,03,22,05,34,2.30
2011,03,22,05,35,2.30
2011,03,22,05,36,2.30
2011,03,22,05,37,2.30
2011,03,22,05,38,2.30
2011,03,22,05,39,2.30
2011,03,22,05,40,2.20
2011,03,22,05,41,2.20
2011,03,22,05,42,2.10
2011,03,22,05,43,2.10
2011,03,22,05,44,2.00
2011,03,22,05,45,2.00
2011,03,22,05,46,1.90
2011,03,22,05,47,1.90
2011,03,22,05,48,1.90
2011,03,22,05,49,1.80
2011,03,22,05,50,1.80
2011,03,22,05,51,1.80
2011,03,22,05,52,1.70
2011,03,22,05,53,1.70
2011,03,22,05,54,1.70
2011,03,22,05,55,1.60
2011,03,22,05,56,1.50
2011,03,22,05,57,1.50
2011,03,22,05,58,1.40
2011,03,22,05,59,1.30
2011,03,22,06,00,1.30
2011,03,22,06,01,1.30
2011,03,22,06,02,1.30
2011,03,22,06,03,1.30
2011,03,22,06,04,1.30
2011,03,22,06,05,1.30
2011,03,22,06,06,1.30
2011,03,22,06,07,1.30
2011,03,22,06,08,1.30
2011,03,22,06,09,1.30
2011,03,22,06,10,1.30
2011,03,22,06,11,1.30
2011,03,22,06,12,1.30
2011,03,22,06,13,1.30
2011,03,22,06,14,1.30
2011,03,22,06,15,1.30
2011,03,22,06,16,1.30
2011,03,22,06,17,1.30
2011,03,22,06,18,1.30
2011,03,22,06,19,1.30
2011,03,22,06,20,1.30
2011,03,22,06,21,1.30
2011,03,22,06,22,1.30
2011,03,22,06,23,1.30
2011,03,22,06,24,1.30
2011,03,22,06,25,1.20
2011,03,22,06,26,1.20
2011,03,22,06,27,1.20
2011,03,22,06,28,1.20
2011,03,22,06,29,1.10
2011,03,22,06,30,1.10
2011,03,22,06,31,1.10
2011,03,22,06,32,1.10
2011,03,22,06,33,1.10
2011,03,22,06,34,1.00
2011,03,22,06,35,1.00
2011,03,22,06,36,1.00
2011,03,22,06,37,1.00
2011,03,22,06,38,1.00
2011,03,22,06,39,0.90
2011,03,22,06,40,0.90
2011,03,22,06,41,1.00
2011,03,22,06,42,1.00
2011,03,22,06,43,1.10
2011,03,22,06,44,1.00
2011,03,22,06,45,1.00
2011,03,22,06,46,1.00
2011,03,22,06,47,1.00
2011,03,22,06,48,1.00
2011,03,22,06,49,1.00
2011,03,22,06,50,1.00
2011,03,22,06,51,1.00
2011,03,22,06,52,1.00
2011,03,22,06,53,1.10
2011,03,22,06,54,1.00
2011,03,22,06,55,1.10
2011,03,22,06,56,1.10
2011,03,22,06,57,1.10
2011,03,22,06,58,1.20
2011,03,22,06,59,1.20
2011,03,22,07,00,1.20
2011,03,22,07,01,1.30
2011,03,22,07,02,1.30
2011,03,22,07,03,1.30
2011,03,22,07,04,1.30
2011,03,22,07,05,1.30
2011,03,22,07,06,1.40
2011,03,22,07,07,1.40
2011,03,22,07,08,1.40
2011,03,22,07,09,1.30
2011,03,22,07,10,1.30
2011,03,22,07,11,1.30
2011,03,22,07,12,1.30
2011,03,22,07,13,1.30
2011,03,22,07,14,1.30
2011,03,22,07,15,1.30
2011,03,22,07,16,1.30
2011,03,22,07,17,1.30
2011,03,22,07,18,1.40
2011,03,22,07,19,1.40
2011,03,22,07,20,1.50
2011,03,22,07,21,1.50
2011,03,22,07,22,1.50
2011,03,22,07,23,1.50
2011,03,22,07,24,1.50
2011,03,22,07,25,1.50
2011,03,22,07,26,1.50
2011,03,22,07,27,1.50
2011,03,22,07,28,1.50
2011,03,22,07,29,1.50
2011,03,22,07,30,1.50
2011,03,22,07,31,1.50
2011,03,22,07,32,1.50
2011,03,22,07,33,1.50
2011,03,22,07,34,1.50
2011,03,22,07,35,1.40
2011,03,22,07,36,1.40
2011,03,22,07,37,1.40
2011,03,22,07,38,1.40
2011,03,22,07,39,1.40
2011,03,22,07,40,1.40
2011,03,22,07,41,1.40
2011,03,22,07,42,1.40
2011,03,22,07,43,1.40
2011,03,22,07,44,1.40
2011,03,22,07,45,1.40
2011,03,22,07,46,1.40
2011,03,22,07,47,1.50
2011,03,22,07,48,1.50
2011,03,22,07,49,1.50
2011,03,22,07,50,1.50
2011,03,22,07,51,1.50
2011,03,22,07,52,1.50
2011,03,22,07,53,1.50
2011,03,22,07,54,1.50
2011,03,22,07,55,1.50
2011,03,22,07,56,1.60
2011,03,22,07,57,1.60
2011,03,22,07,58,1.60
2011,03,22,07,59,1.60
2011,03,22,08,00,1.60
2011,03,22,08,01,1.60
2011,03,22,08,02,1.70
2011,03,22,08,03,1.70
2011,03,22,08,04,1.70
2011,03,22,08,05,1.70
2011,03,22,08,06,1.70
2011,03,22,08,07,1.80
2011,03,22,08,08,1.80
2011,03,22,08,09,1.80
2011,03,22,08,10,1.80
2011,03,22,08,11,1.80
2011,03,22,08,12,1.90
2011,03,22,08,13,1.90
2011,03,22,08,14,1.90
2011,03,22,08,15,2.00
2011,03,22,08,16,2.00
2011,03,22,08,17,2.00
2011,03,22,08,18,2.10
2011,03,22,08,19,2.10
2011,03,22,08,20,2.20
2011,03,22,08,21,2.20
2011,03,22,08,22,2.20
2011,03,22,08,23,2.20
2011,03,22,08,24,2.30
2011,03,22,08,25,2.30
2011,03,22,08,26,2.30
2011,03,22,08,27,2.30
2011,03,22,08,28,2.40
2011,03,22,08,29,2.40
2011,03,22,08,30,2.40
2011,03,22,08,31,2.40
2011,03,22,08,32,2.50
2011,03,22,08,33,2.50
2011,03,22,08,34,2.50
2011,03,22,08,35,2.50
2011,03,22,08,36,2.60
2011,03,22,08,37,2.60
2011,03,22,08,38,2.60
2011,03,22,08,39,2.60
2011,03,22,08,40,2.60
2011,03,22,08,41,2.60
2011,03,22,08,42,2.60
2011,03,22,08,43,2.70
2011,03,22,08,44,2.70
2011,03,22,08,45,2.70
2011,03,22,08,46,2.70
2011,03,22,08,47,2.70
2011,03,22,08,48,2.70
2011,03,22,08,49,2.80
2011,03,22,08,50,2.80
2011,03,22,08,51,2.80
2011,03,22,08,52,2.80
2011,03,22,08,53,2.80
2011,03,22,08,54,2.80
2011,03,22,08,55,2.90
2011,03,22,08,56,2.90
2011,03,22,08,57,2.90
2011,03,22,08,58,2.90
2011,03,22,08,59,3.00
2011,03,22,09,00,3.00
2011,03,22,09,01,3.00
2011,03,22,09,02,3.10
2011,03,22,09,03,3.10
2011,03,22,09,04,3.20
2011,03,22,09,05,3.20
2011,03,22,09,06,3.20
2011,03,22,09,07,3.30
2011,03,22,09,08,3.30
2011,03,22,09,09,3.40
2011,03,22,09,10,3.40
2011,03,22,09,11,3.50
2011,03,22,09,12,3.50
2011,03,22,09,13,3.60
2011,03,22,09,14,3.60
2011,03,22,09,15,3.70
2011,03,22,09,16,3.70
2011,03,22,09,17,3.80
2011,03,22,09,18,3.80
2011,03,22,09,19,3.90
2011,03,22,09,20,4.00
2011,03,22,09,21,4.10
2011,03,22,09,22,4.10
2011,03,22,09,23,4.20
2011,03,22,09,24,4.30
2011,03,22,09,25,4.30
2011,03,22,09,26,4.40
2011,03,22,09,27,4.40
2011,03,22,09,28,4.50
2011,03,22,09,29,4.50
2011,03,22,09,30,4.60
2011,03,22,09,31,4.60
2011,03,22,09,32,4.70
2011,03,22,09,33,4.70
2011,03,22,09,34,4.70
2011,03,22,09,35,4.80
2011,03,22,09,36,4.80
2011,03,22,09,37,4.80
2011,03,22,09,38,4.80
2011,03,22,09,39,4.80
2011,03,22,09,40,4.80
2011,03,22,09,41,4.80
2011,03,22,09,42,4.80
2011,03,22,09,43,4.80
2011,03,22,09,44,4.80
2011,03,22,09,45,4.80
2011,03,22,09,46,4.80
2011,03,22,09,47,4.80
2011,03,22,09,48,4.80
2011,03,22,09,49,4.80
2011,03,22,09,50,4.80
2011,03,22,09,51,4.80
2011,03,22,09,52,4.80
2011,03,22,09,53,4.80
2011,03,22,09,54,4.80
2011,03,22,09,55,4.90
2011,03,22,09,56,4.90
2011,03,22,09,57,4.90
2011,03,22,09,58,5.00
2011,03,22,09,59,5.00
2011,03,22,10,00,5.10
2011,03,22,10,01,5.10
2011,03,22,10,02,5.20
2011,03,22,10,03,5.20
2011,03,22,10,04,5.30
2011,03,22,10,05,5.30
2011,03,22,10,06,5.40
2011,03,22,10,07,5.50
2011,03,22,10,08,5.50
2011,03,22,10,09,5.60
2011,03,22,10,10,5.70
2011,03,22,10,11,5.70
2011,03,22,10,12,5.80
2011,03,22,10,13,5.90
2011,03,22,10,14,6.00
2011,03,22,10,15,6.10
2011,03,22,10,16,6.20
2011,03,22,10,17,6.30
2011,03,22,10,18,6.40
2011,03,22,10,19,6.50
2011,03,22,10,20,6.60
2011,03,22,10,21,6.70
2011,03,22,10,22,6.80
2011,03,22,10,23,6.80
2011,03,22,10,24,6.90
2011,03,22,10,25,6.90
2011,03,22,10,26,7.00
2011,03,22,10,27,7.10
2011,03,22,10,28,7.20
2011,03,22,10,29,7.20
2011,03,22,10,30,7.30
2011,03,22,10,31,7.30
2011,03,22,10,32,7.30
2011,03,22,10,33,7.20
2011,03,22,10,34,7.20
2011,03,22,10,35,7.20
2011,03,22,10,36,7.20
2011,03,22,10,37,7.20
2011,03,22,10,38,7.20
2011,03,22,10,39,7.30
2011,03,22,10,40,7.30
2011,03,22,10,41,7.40
2011,03,22,10,42,7.40
2011,03,22,10,43,7.50
2011,03,22,10,44,7.60
2011,03,22,10,45,7.60
2011,03,22,10,46,7.70
2011,03,22,10,47,7.80
2011,03,22,10,48,7.90
2011,03,22,10,49,8.00
2011,03,22,10,50,8.10
2011,03,22,10,51,8.10
2011,03,22,10,52,8.10
2011,03,22,10,53,8.20
2011,03,22,10,54,8.20
2011,03,22,10,55,8.30
2011,03,22,10,56,8.30
2011,03,22,10,57,8.30
2011,03,22,10,58,8.40
2011,03,22,10,59,8.40
2011,03,22,11,00,8.40
2011,03,22,11,01,8.50
2011,03,22,11,02,8.60
2011,03,22,11,03,8.60
2011,03,22,11,04,8.60
2011,03,22,11,05,8.60
2011,03,22,11,06,8.60
2011,03,22,11,07,8.50
2011,03,22,11,08,8.40
2011,03,22,11,09,8.40
2011,03,22,11,10,8.50
2011,03,22,11,11,8.50
2011,03,22,11,12,8.50
2011,03,22,11,13,8.50
2011,03,22,11,14,8.50
2011,03,22,11,15,8.60
2011,03,22,11,16,8.70
2011,03,22,11,17,8.70
2011,03,22,11,18,8.80
2011,03,22,11,19,8.80
2011,03,22,11,20,8.90
2011,03,22,11,21,8.90
2011,03,22,11,22,8.90
2011,03,22,11,23,9.00
2011,03,22,11,24,9.10
2011,03,22,11,25,9.10
2011,03,22,11,26,9.10
2011,03,22,11,27,9.10
2011,03,22,11,28,9.20
2011,03,22,11,29,9.20
2011,03,22,11,30,9.20
2011,03,22,11,31,9.20
2011,03,22,11,32,9.30
2011,03,22,11,33,9.30
2011,03,22,11,34,9.30
2011,03,22,11,35,9.30
2011,03,22,11,36,9.30
2011,03,22,11,37,9.20
2011,03,22,11,38,9.20
2011,03,22,11,39,9.20
2011,03,22,11,40,9.30
2011,03,22,11,41,9.20
2011,03,22,11,42,9.20
2011,03,22,11,43,9.20
2011,03,22,11,44,9.30
2011,03,22,11,45,9.30
2011,03,22,11,46,9.30
2011,03,22,11,47,9.30
2011,03,22,11,48,9.40
2011,03,22,11,49,9.50
2011,03,22,11,50,9.60
2011,03,22,11,51,9.60
2011,03,22,11,52,9.70
2011,03,22,11,53,9.80
2011,03,22,11,54,9.80
2011,03,22,11,55,9.90
2011,03,22,11,56,10.00
2011,03,22,11,57,10.10
2011,03,22,11,58,10.10
2011,03,22,11,59,10.20
2011,03,22,12,00,10.30
2011,03,22,12,01,10.40
2011,03,22,12,02,10.50
2011,03,22,12,03,10.50
2011,03,22,12,04,10.60
2011,03,22,12,05,10.70
2011,03,22,12,06,10.80
2011,03,22,12,07,10.90
2011,03,22,12,08,11.00
2011,03,22,12,09,11.10
2011,03,22,12,10,11.20
2011,03,22,12,11,11.40
2011,03,22,12,12,11.50
2011,03,22,12,13,11.60
2011,03,22,12,14,11.60
2011,03,22,12,15,11.70
2011,03,22,12,16,11.80
2011,03,22,12,17,11.80
2011,03,22,12,18,11.90
2011,03,22,12,19,12.00
2011,03,22,12,20,12.10
2011,03,22,12,21,12.20
2011,03,22,12,22,12.30
2011,03,22,12,23,12.30
2011,03,22,12,24,12.50
2011,03,22,12,25,12.60
2011,03,22,12,26,12.70
2011,03,22,12,27,12.80
2011,03,22,12,28,13.00
2011,03,22,12,29,13.20
2011,03,22,12,30,13.40
2011,03,22,12,31,13.70
2011,03,22,12,32,13.80
2011,03,22,12,33,13.90
2011,03,22,12,34,14.10
2011,03,22,12,35,14.20
2011,03,22,12,36,14.30
2011,03,22,12,37,14.40
2011,03,22,12,38,14.50
2011,03,22,12,39,14.50
2011,03,22,12,40,14.50
2011,03,22,12,41,14.40
2011,03,22,12,42,14.40
2011,03,22,12,43,14.40
2011,03,22,12,44,14.30
2011,03,22,12,45,14.10
2011,03,22,12,46,13.80
2011,03,22,12,47,13.50
2011,03,22,12,48,13.10
2011,03,22,12,49,12.90
2011,03,22,12,50,12.70
2011,03,22,12,51,12.50
2011,03,22,12,52,12.40
2011,03,22,12,53,12.30
2011,03,22,12,54,12.30
2011,03,22,12,55,12.30
2011,03,22,12,56,12.20
2011,03,22,12,57,12.20
2011,03,22,12,58,12.20
2011,03,22,12,59,12.10
2011,03,22,13,00,12.10
2011,03,22,13,01,12.10
2011,03,22,13,02,12.10
2011,03,22,13,03,12.10
2011,03,22,13,04,12.00
2011,03,22,13,05,11.90
2011,03,22,13,06,11.80
2011,03,22,13,07,11.60
2011,03,22,13,08,11.50
2011,03,22,13,09,11.30
2011,03,22,13,10,11.20
2011,03,22,13,11,11.10
2011,03,22,13,12,11.00
2011,03,22,13,13,10.90
2011,03,22,13,14,10.80
2011,03,22,13,15,10.80
2011,03,22,13,16,10.80
2011,03,22,13,17,10.70
2011,03,22,13,18,10.60
2011,03,22,13,19,10.50
2011,03,22,13,20,10.40
2011,03,22,13,21,10.40
2011,03,22,13,22,10.40
2011,03,22,13,23,10.40
2011,03,22,13,24,10.40
2011,03,22,13,25,10.30
2011,03,22,13,26,10.30
2011,03,22,13,27,10.30
2011,03,22,13,28,10.30
2011,03,22,13,29,10.30
2011,03,22,13,30,10.30
2011,03,22,13,31,10.20
2011,03,22,13,32,10.20
2011,03,22,13,33,10.10
2011,03,22,13,34,10.00
2011,03,22,13,35,9.90
2011,03,22,13,36,9.90
2011,03,22,13,37,9.80
2011,03,22,13,38,9.80
2011,03,22,13,39,9.70
2011,03,22,13,40,9.70
2011,03,22,13,41,9.80
2011,03,22,13,42,9.80
2011,03,22,13,43,9.90
2011,03,22,13,44,10.00
2011,03,22,13,45,10.10
2011,03,22,13,46,10.20
2011,03,22,13,47,10.30
2011,03,22,13,48,10.40
2011,03,22,13,49,10.60
2011,03,22,13,50,10.90
2011,03,22,13,51,11.10
2011,03,22,13,52,11.30
2011,03,22,13,53,11.40
2011,03,22,13,54,11.60
2011,03,22,13,55,11.70
2011,03,22,13,56,11.90
2011,03,22,13,57,11.90
2011,03,22,13,58,12.10
2011,03,22,13,59,12.20
2011,03,22,14,00,12.30
2011,03,22,14,01,12.40
2011,03,22,14,02,12.40
2011,03,22,14,03,12.50
2011,03,22,14,04,12.50
2011,03,22,14,05,12.60
2011,03,22,14,06,12.60
2011,03,22,14,07,12.60
2011,03,22,14,08,12.60
2011,03,22,14,09,12.60
2011,03,22,14,10,12.60
2011,03,22,14,11,12.60
2011,03,22,14,12,12.70
2011,03,22,14,13,12.80
2011,03,22,14,14,12.90
2011,03,22,14,15,13.10
2011,03,22,14,16,13.20
2011,03,22,14,17,13.30
2011,03,22,14,18,13.30
2011,03,22,14,19,13.30
2011,03,22,14,20,13.40
2011,03,22,14,21,13.40
2011,03,22,14,22,13.40
2011,03,22,14,23,13.30
2011,03,22,14,24,13.30
2011,03,22,14,25,13.20
2011,03,22,14,26,13.00
2011,03,22,14,27,12.90
2011,03,22,14,28,12.90
2011,03,22,14,29,12.80
2011,03,22,14,30,12.80
2011,03,22,14,31,12.80
2011,03,22,14,32,12.80
2011,03,22,14,33,12.90
2011,03,22,14,34,12.90
2011,03,22,14,35,13.00
2011,03,22,14,36,12.90
2011,03,22,14,37,12.80
2011,03,22,14,38,12.70
2011,03,22,14,39,12.60
2011,03,22,14,40,12.50
2011,03,22,14,41,12.40
2011,03,22,14,42,12.40
2011,03,22,14,43,12.30
2011,03,22,14,44,12.30
2011,03,22,14,45,12.10
2011,03,22,14,46,12.00
2011,03,22,14,47,11.80
2011,03,22,14,48,11.70
2011,03,22,14,49,11.60
2011,03,22,14,50,11.50
2011,03,22,14,51,11.50
2011,03,22,14,52,11.50
2011,03,22,14,53,11.50
2011,03,22,14,54,11.60
2011,03,22,14,55,11.60
2011,03,22,14,56,11.60
2011,03,22,14,57,11.70
2011,03,22,14,58,11.80
2011,03,22,14,59,11.80
2011,03,22,15,00,12.00
2011,03,22,15,01,12.10
2011,03,22,15,02,12.20
2011,03,22,15,03,12.40
2011,03,22,15,04,12.60
2011,03,22,15,05,12.80
2011,03,22,15,06,12.90
2011,03,22,15,07,12.90
2011,03,22,15,08,12.80
2011,03,22,15,09,12.80
2011,03,22,15,10,12.80
2011,03,22,15,11,12.80
2011,03,22,15,12,12.90
2011,03,22,15,13,12.80
2011,03,22,15,14,12.80
2011,03,22,15,15,12.70
2011,03,22,15,16,12.60
2011,03,22,15,17,12.40
2011,03,22,15,18,12.30
2011,03,22,15,19,12.20
2011,03,22,15,20,12.00
2011,03,22,15,21,11.80
2011,03,22,15,22,11.60
2011,03,22,15,23,11.60
2011,03,22,15,24,11.60
2011,03,22,15,25,11.60
2011,03,22,15,26,11.60
2011,03,22,15,27,11.60
2011,03,22,15,28,11.50
2011,03,22,15,29,11.40
2011,03,22,15,30,11.40
2011,03,22,15,31,11.40
2011,03,22,15,32,11.40
2011,03,22,15,33,11.50
2011,03,22,15,34,11.50
2011,03,22,15,35,11.60
2011,03,22,15,36,11.70
2011,03,22,15,37,11.70
2011,03,22,15,38,11.70
2011,03,22,15,39,11.70
2011,03,22,15,40,11.70
2011,03,22,15,41,11.60
2011,03,22,15,42,11.60
2011,03,22,15,43,11.60
2011,03,22,15,44,11.50
2011,03,22,15,45,11.50
2011,03,22,15,46,11.50
2011,03,22,15,47,11.40
2011,03,22,15,48,11.40
2011,03,22,15,49,11.50
2011,03,22,15,50,11.60
2011,03,22,15,51,11.70
2011,03,22,15,52,11.70
2011,03,22,15,53,11.80
2011,03,22,15,54,11.80
2011,03,22,15,55,11.80
2011,03,22,15,56,11.80
2011,03,22,15,57,11.80
2011,03,22,15,58,11.80
2011,03,22,15,59,11.80
2011,03,22,16,00,11.70
2011,03,22,16,01,11.70
2011,03,22,16,02,11.70
2011,03,22,16,03,11.70
2011,03,22,16,04,11.80
2011,03,22,16,05,11.80
2011,03,22,16,06,11.80
2011,03,22,16,07,11.80
2011,03,22,16,08,11.70
2011,03,22,16,09,11.60
2011,03,22,16,10,11.60
2011,03,22,16,11,11.60
2011,03,22,16,12,11.70
2011,03,22,16,13,11.70
2011,03,22,16,14,11.70
2011,03,22,16,15,11.70
2011,03,22,16,16,11.80
2011,03,22,16,17,11.90
2011,03,22,16,18,11.90
2011,03,22,16,19,11.90
2011,03,22,16,20,11.90
2011,03,22,16,21,11.90
2011,03,22,16,22,11.90
2011,03,22,16,23,11.90
2011,03,22,16,24,11.90
2011,03,22,16,25,11.80
2011,03,22,16,26,11.70
2011,03,22,16,27,11.70
2011,03,22,16,28,11.80
2011,03,22,16,29,11.80
2011,03,22,16,30,11.80
2011,03,22,16,31,11.80
2011,03,22,16,32,11.70
2011,03,22,16,33,11.70
2011,03,22,16,34,11.70
2011,03,22,16,35,11.60
2011,03,22,16,36,11.50
2011,03,22,16,37,11.30
2011,03,22,16,38,11.20
2011,03,22,16,39,11.20
2011,03,22,16,40,11.10
2011,03,22,16,41,11.00
2011,03,22,16,42,10.80
2011,03,22,16,43,10.80
2011,03,22,16,44,10.70
2011,03,22,16,45,10.60
2011,03,22,16,46,10.40
2011,03,22,16,47,10.30
2011,03,22,16,48,10.30
2011,03,22,16,49,10.20
2011,03,22,16,50,10.10
2011,03,22,16,51,10.10
2011,03,22,16,52,10.10
2011,03,22,16,53,10.10
2011,03,22,16,54,10.00
2011,03,22,16,55,9.90
2011,03,22,16,56,9.90
2011,03,22,16,57,9.80
2011,03,22,16,58,9.80
2011,03,22,16,59,9.70
2011,03,22,17,00,9.70
2011,03,22,17,01,9.80
2011,03,22,17,02,9.80
2011,03,22,17,03,9.90
2011,03,22,17,04,9.90
2011,03,22,17,05,10.00
2011,03,22,17,06,10.10
2011,03,22,17,07,10.20
2011,03,22,17,08,10.30
2011,03,22,17,09,10.40
2011,03,22,17,10,10.40
2011,03,22,17,11,10.50
2011,03,22,17,12,10.60
2011,03,22,17,13,10.60
2011,03,22,17,14,10.60
2011,03,22,17,15,10.50
2011,03,22,17,16,10.40
2011,03,22,17,17,10.40
2011,03,22,17,18,10.40
2011,03,22,17,19,10.40
2011,03,22,17,20,10.30
2011,03,22,17,21,10.30
2011,03,22,17,22,10.30
2011,03,22,17,23,10.20
2011,03,22,17,24,10.20
2011,03,22,17,25,10.10
2011,03,22,17,26,10.00
2011,03,22,17,27,9.90
2011,03,22,17,28,9.80
2011,03,22,17,29,9.70
2011,03,22,17,30,9.60
2011,03,22,17,31,9.60
2011,03,22,17,32,9.50
2011,03,22,17,33,9.30
2011,03,22,17,34,9.20
2011,03,22,17,35,9.10
2011,03,22,17,36,9.00
2011,03,22,17,37,8.90
2011,03,22,17,38,8.80
2011,03,22,17,39,8.70
2011,03,22,17,40,8.70
2011,03,22,17,41,8.60
2011,03,22,17,42,8.60
2011,03,22,17,43,8.60
2011,03,22,17,44,8.60
2011,03,22,17,45,8.60
2011,03,22,17,46,8.60
2011,03,22,17,47,8.60
2011,03,22,17,48,8.50
2011,03,22,17,49,8.40
2011,03,22,17,50,8.20
2011,03,22,17,51,8.10
2011,03,22,17,52,8.10